Regional Weather Roundup
Issued by NWS

Home | Current Version | Previous Version | Graphics & Text | Print | Product List | Glossary On
Versions: 1 2 3 4 5 6 7 8 9 10 11 12 13 14 15 16 17 18 19 20 21 22 23 24 25 26 27 28 29 30 31 32 33 34 35 36 37 38 39 40 41 42 43 44 45 46 47 48 49 50
000
ASUS45 KSLC 290210
RWRUT

UTAH REGIONAL WEATHER ROUNDUP
NATIONAL WEATHER SERVICE SALT LAKE CITY UT
800 PM MDT THU MAY 28 2015

UTZ001>011-023>025-290300-

NORTHERN UTAH

CITY           SKY/WX    TMP DP  RH WIND       PRES   REMARKS
BRIGHAM CITY   CLEAR     66  43  43 N7        30.11S
HILL AFB       CLEAR     65  39  38 N2        30.12S
LOGAN          MOCLDY    61  49  64 N7        30.13R
OGDEN          CLEAR     66  42  41 CALM      30.10S
PROVO AIRPORT  PTCLDY    66  37  34 NW10      30.11R
SALT LAKE CITY PTCLDY    69  43  38 N8        30.09S
VERNAL         MOCLDY    55  42  61 NE12      30.14S
WENDOVER       CLEAR     72  46  40 CALM      30.08S
HEBER CITY     CLEAR     59  37  44 N10       30.15R
WEST JORDAN    CLEAR     66  39  37 NW8       30.12R

$$

UTZ012>022-026-027-290300-

SOUTHERN/CENTRAL UTAH

CITY           SKY/WX    TMP DP  RH WIND       PRES   REMARKS
BLANDING       PTCLDY    65  38  36 NW14G23   30.18R
BRYCE CANYON   MOCLDY    54  38  54 N23G35    30.24R
CEDAR CITY     CLOUDY    65  40  39 E8        30.12R
DELTA          PTCLDY    69  40  35 SE6       30.10S
HANKSVILLE     CLOUDY    72  37  28 E6        30.07R
MILFORD        CLEAR     68  46  45 CALM      30.09S
MOAB/CYNLANDS  CLEAR     69  38  32 SE3       30.05R
PRICE          PTCLDY    65  33  30 NW16G24   30.13R
ST GEORGE      CLEAR     90  34  13 W10       29.91S
KANAB          PTCLDY    77  30  18 W9        30.07R

$$

REGIONAL REPORTS     COLORADO/ARIZONA

CITY           SKY/WX    TMP DP  RH WIND       PRES   REMARKS
CRAIG, CO      CLOUDY    47  41  80 S12       30.20F
GRAND JUNCTION PTCLDY    61  41  47 SE9       30.09S
RIFLE          PTCLDY    59  39  47 CALM      30.15R
MONTROSE       MOCLDY    57  44  62 SE15      30.19S
CORTEZ         MOCLDY    61  41  47 NE12      30.14R
PAGE, AZ       PTCLDY    80  36  20 N5        30.01R
GRAND CANYON   CLEAR     71  25  17 NW6       30.16R
KINGMAN        MOCLDY    83  20   9 SW12      29.96S
FLAGSTAFF      CLEAR     68  15  13 W8        30.20R

$$

REGIONAL REPORTS    NEVADA/IDAHO/WYOMING

CITY           SKY/WX    TMP DP  RH WIND       PRES   REMARKS
LAS VEGAS, NV  MOCLDY    93  25   8 SE10G20   29.79S
ELY            CLOUDY    64  40  41 S12       30.14R
ELKO           SUNNY     72  40  31 N12       30.09R
POCATELLO, ID  PTCLDY    59  48  67 E9        30.14S
BURLEY         CLEAR     66  42  41 SW8       30.08R
EVANSTON, WY   CLEAR     52  37  56 W6        30.22S
ROCK SPRINGS   MOCLDY    48  40  73 SW12      30.19S
KEMMERER       PTCLDY    46  37  71 NW7       30.23R

$$



USA.gov is the U.S. government's official web portal to all federal, state and local government web resources and services.